Regional Weather Roundup
Issued by NWS Green Bay, WI

Home | Current Version | Previous Version | Text Only | Print | Product List | Glossary On
Versions: 1 2 3 4 5 6 7 8 9 10 11 12 13 14 15 16 17 18 19 20 21 22 23 24 25 26 27 28 29 30 31 32 33 34 35 36 37 38 39 40 41 42 43 44 45 46 47 48 49 50
000
ASUS43 KGRB 140111
RWRGRB

NORTH-CENTRAL AND NORTHEAST WISCONSIN REGIONAL WEATHER ROUNDUP
NATIONAL WEATHER SERVICE GREEN BAY WI
700 PM CST WED DEC 13 2017

WIZ005-009-010>012-018-019-140200-
NORTH CENTRAL WISCONSIN

CITY           SKY/WX    TMP DP  RH WIND       PRES   REMARKS
IRONWOOD       FLURRIES  18  14  84 N9        29.80R WCI   7
MANITOWISH WTR LGT SNOW  15  14  96 N3        29.74R
ARBOR VITAE    FLURRIES  17  14  89 N6        29.73R WCI   8
EAGLE RIVER    FLURRIES  15  11  85 N6        29.71R WCI   6
LAND O LAKES   FLURRIES  17  14  88 N5        29.74R WCI  10
RHINELANDER    CLOUDY    13  11  92 CALM      29.72R
PHILLIPS       CLEAR      9   8  97 N5        29.75R WCI   1
ANTIGO         MOCLDY    14  10  85 N9        29.71R WCI   2
TOMAHAWK       CLEAR     12   9  89 NW3       29.74R
MERRILL        CLEAR     15  12  88 N5        29.73R WCI   7
$$

WIZ013-073-140200-
NORTHEAST WISCONSIN

CITY           SKY/WX    TMP DP  RH WIND       PRES   REMARKS
IRON MOUNTAIN  FLURRIES  12   8  84 N6        29.71R WCI   3
MARINETTE      CLOUDY    15   9  76 NE13G22   29.74R WCI   1
OCONTO         CLOUDY    17  10  75 N14G20    29.72R WCI   3
$$

WIZ017-030-035>037-045-140200-
CENTRAL WISCONSIN

CITY           SKY/WX    TMP DP  RH WIND       PRES   REMARKS
MEDFORD        CLEAR     14  10  85 N8        29.73R WCI   3
WAUSAU         CLOUDY    17  13  84 N8        29.72R WCI   7
MOSINEE        LGT SNOW  18  16  93 N12G17    29.72R WCI   5
MARSHFIELD     PTCLDY    18  13  80 N10       29.72R WCI   6
WISC RAPIDS    LGT SNOW  20  16  84 N12       29.73R FOG     WCI   8
STEVENS POINT  MIX PCPN  17  15  90 N9        29.72R WCI   6
WAUPACA        LGT SNOW  22  17  79 N10G18    29.71R
SHAWANO        CLOUDY    20  15  81 N16G23    29.72R WCI   5
CLINTONVILLE   CLOUDY    19  12  73 N16G22    29.71R WCI   5
WAUTOMA        LGT SNOW  21  17  84 N13       29.70R FOG     WCI   9
$$

WIZ038-039-048-051-140200-
FOX VALLEY

CITY           SKY/WX    TMP DP  RH WIND       PRES   REMARKS
NWS GREEN BAY  LGT SNOW  20  14  77 N23       29.68R WCI   3
APPLETON       LGT SNOW  19  16  86 N22G28    29.62R WCI   3
OSHKOSH        LGT SNOW  22  19  89 N20G28    29.64R FOG     WCI   7
FOND DU LAC    MIX PCPN  25  20  81 N22G28    29.64R
$$

WIZ022-050-052-140200-
EAST CENTRAL WISCONSIN

CITY           SKY/WX    TMP DP  RH WIND       PRES   REMARKS
EPHRAIM        FAIR      17   8  70 N15G28    29.69R WCI   2
WASHINGTON ISL FAIR      16   2  53 NE17G25   29.71R WCI   0
STURGEON BAY   FLURRIES  20  15  81 N18       29.68R WCI   5
MANITOWOC      LGT SNOW  25  21  86 N8G17     29.63R FOG
SHEBOYGAN      LGT SNOW  24  23  96 N18G26    29.58R FOG
$$

LMZ563-521-522-541>543-140200-
LAKESHORE

STATION/POSITION TIME  TEMP    WIND        PRES    VSBY  WAVE
                       AIR SEA DIR/SP/G                  HT/PER
                 (UTC) (F)     (DEG/KT/KT) (MB)    (MI)  (FT/S)
SHEBOYGAN LKSHOR 0000   26      30/ 26/ 29 1000.6R
KEWAUNEE LKSHORE 0042   23     360/ 11/ 18 1002.7R
NORTHPORT PIER   0040   19      20/ 18/ 24 1006.1R
MENOMINEE LKSHOR 0042   20      10/ 23/ 27 1005.5R
$$



USA.gov is the U.S. government's official web portal to all federal, state and local government web resources and services.